Weather in Barneveld

Netherlands     52°08′34″N   5°35′12″E
temp.,
°C
wind,
m/s
gust,
m/s
humid.,
%
clouds,
%
prec.,
mm/h
press.,
hPa
HPBL,
m
26 june, sun
sun2623:00+16ne0197100 2.1 101231
02:00+16ssw3797100 2.3 1012209
05:00+15ssw3797100 0.0 1013268
08:00+16sw4887100 0.0 1014449
11:00+19sw5665100 0.0 1015907
14:00+21ssw4554100 0.0 10151335
17:00+22ssw3551100 0.0 10151735
20:00+19s3468100 0.1 1015146
27 june, mon
mon2723:00+16sse2383100 0.1 101638
02:00+15s2292100 0.6 101629
05:00+15se2291100 0.0 101555
08:00+16s2392100 0.1 1015156
11:00+19sw3471100 0.6 1016501
14:00+18sw5775100 1.0 1017584
17:00+20w476070 0.1 10181338
20:00+19wnw346084 0.1 1019212
28 june, tue
tue2823:00+14sw337438 0.0 102036
02:00+12sw34745 0.0 102145
05:00+11ssw34875 0.0 102167
08:00+15sw36740 0.0 1021249
11:00+19ssw46570 0.0 1021959
14:00+22ssw46480 0.0 10201881
17:00+24ssw24424 0.0 10182023
20:00+23se135784 0.0 1018319
29 june, wed
wed2923:00+17ene3572100 0.0 101868
02:00+16ese346629 0.0 101653
05:00+15sse3480100 0.0 101650
08:00+19sse34715 0.0 1016178
11:00+23ssw3453100 0.0 1016626
14:00+26ssw344474 0.0 10151667
17:00+27ssw34415 0.0 10142076
20:00+22n456894 0.0 1014155
30 june, thu
thu3023:00+18ne33775 0.0 101444
02:00+17e23850 0.0 101330
05:00+17e34850 0.0 101256
08:00+21se357311 0.0 1012212
11:00+26se34545 0.0 1011720
14:00+29se464781 0.0 10102367
17:00+25se256218 0.3 1009156
20:00+23n467329 0.4 1007162